Weather in Maksimovka

Russia / Samara Oblast     52°58′59″N   51°08′05″E
temp.,
°C
wind,
m/s
gust,
m/s
humid.,
%
clouds,
%
prec.,
mm/h
press.,
hPa
HPBL,
m
4 march, thu
thu401:00−10wnw449580 0.0 100772
04:00−12w349550 0.1 100868
07:00−12wsw479638 0.0 1008122
10:00−7sw6119360 0.1 1007394
13:00−4sw81292100 0.1 1005637
16:00−2sw91592100 0.2 1003999
19:00+1wsw101795100 1.0 10011005
22:000wsw101697100 2.3 1002940
5 march, fri
fri501:000wsw81590100 0.1 1002712
04:00−1sw81490100 0.1 1002702
07:00−1sw71397100 0.4 1001618
10:000sw61198100 2.0 1002677
13:000wnw58100100 1.4 1003496
16:00−1nnw4694100 2.0 1005471
19:00−5nnw2394100 0.2 100864
22:00−9nnw239284 0.2 101121
6 march, sat
sat601:00−13nw12942 0.0 101321
04:00−14wsw129133 0.0 101420
07:00−14sw228444 0.0 101520
10:00−10wsw349239 0.0 1015169
13:00−6wsw2489100 0.0 1015318
16:00−6nnw2392100 0.0 1014323
19:00−9nnw3490100 0.0 101483
22:00−12nnw3794100 0.0 1013153
7 march, sun
sun701:00−15nnw349496 0.0 101382
04:00−18nnw349377 0.0 101451
07:00−20nw33980 0.0 101430
10:00−16wnw23910 0.0 1015154
13:00−12sw348737 0.0 1015319
16:00−11ssw598851 0.0 1014358
19:00−14ssw49930 0.0 1013162
22:00−11ssw6139448 0.0 1012356
8 march, mon
mon801:00−7ssw81592100 0.1 1008614
04:00−6ssw91691100 0.4 1005878
07:00−5sw91793100 0.4 1004812
10:00−4wnw5880100 1.3 1005719
13:00−4sw357194 0.0 1007443
16:00−2ssw8129597 0.8 1005888
19:00−2ssw91694100 1.0 10011005
22:00−4w101879100 1.6 10021040